Whiteman AFB, MO

6:26 AM CST on November 18, 2017 (GMT -0600)
Whiteman Air Force Base

Weather History for KSZL - April, 2013

Change the Weather History Date:

Sunday, April 7, 2013

  Actual Average Record
Temperature  
Mean Temperature 59 °F -  
Max Temperature 75 °F 61 °F 81 °F (2015)
Min Temperature 44 °F 41 °F 19 °F (2007)
Degree Days  
Heating Degree Days 6    
Growing Degree Days 9 (Base 50)    
Moisture  
Dew Point 53 °F    
Average Humidity 81    
Maximum Humidity 100    
Minimum Humidity 43    
Precipitation  
Precipitation 0.09 in - - ()
Sea Level Pressure  
Sea Level Pressure 29.80 in    
Wind  
Wind Speed 6 mph (South)    
Max Wind Speed 17 mph    
Max Gust Speed 25 mph    
Visibility 10 miles    
Events Rain , Thunderstorm    
Averages and records for this station are not official NWS values.
T = Trace of Precipitation, MM = Missing Value Source: NWS Daily Summary

Daily Weather History Graph

Daily Weather History Graph

Search for Another Location

Airport or City:

Trip Planner

Search our weather history database for the weather conditions in past years. The results will help you decide how hot, cold, wet, or windy it might be!

Date:

Astronomy

Apr. 07, 2013 Rise Set
Actual Time 6:49 AM CDT 7:43 PM CDT
Civil Twilight 6:22 AM CDT 8:10 PM CDT
Nautical Twilight 5:50 AM CDT 8:42 PM CDT
Astronomical Twilight 5:17 AM CDT 9:16 PM CDT
Moon 5:05 AM CDT (4/7) 5:17 PM CDT (4/7)
Length of Visible Light 13h 48m
Length of Day
12h 54m
Waning Crescent, 8% of the Moon is Illuminated
Apr 7
Waning Crescent
Apr 10
New
Apr 18
First Quarter
Apr 25
Full
May 2
Last Quarter

Hourly Weather History & Observations

Time (CDT) Temp. Windchill Dew Point Humidity Pressure Visibility Wind Dir Wind Speed Gust Speed Precip Events Conditions
12:58 AM 53.4 °F - 53.2 °F 99% 29.82 in 10.0 mi WSW 3.5 mph - N/A   Clear
1:58 AM 53.1 °F - 52.9 °F 99% 29.83 in 10.0 mi WSW 3.5 mph - N/A   Clear
2:58 AM 49.5 °F - 49.5 °F 100% 29.83 in 10.0 mi SW 3.5 mph - N/A   Clear
3:58 AM 48.0 °F - 48.0 °F 100% 29.83 in 10.0 mi SSW 3.5 mph - N/A   Clear
4:58 AM 46.8 °F - 46.8 °F 100% 29.84 in 10.0 mi Calm Calm - N/A   Clear
5:58 AM 45.9 °F - 45.9 °F 100% 29.86 in 10.0 mi Calm Calm - N/A   Clear
6:58 AM 44.6 °F 42.2 °F 44.6 °F 100% 29.88 in 10.0 mi South 4.6 mph - N/A   Clear
7:58 AM 48.9 °F - 48.9 °F 100% 29.88 in 10.0 mi South 2.3 mph - N/A   Clear
8:58 AM 56.3 °F - 56.3 °F 100% 29.88 in 10.0 mi South 4.6 mph - N/A   Clear
9:58 AM 62.6 °F - 57.4 °F 83% 29.89 in 10.0 mi SSW 8.1 mph - N/A   Clear
10:58 AM 66.0 °F - 53.1 °F 63% 29.89 in 10.0 mi South 5.8 mph - N/A   Mostly Cloudy
11:58 AM 69.6 °F - 51.4 °F 52% 29.88 in 10.0 mi SSE 6.9 mph - N/A   Mostly Cloudy
12:58 PM 71.4 °F - 52.3 °F 51% 29.86 in 10.0 mi SE 10.4 mph - N/A   Mostly Cloudy
1:58 PM 72.5 °F - 48.6 °F 43% 29.85 in 10.0 mi South 9.2 mph - N/A   Mostly Cloudy
2:58 PM 73.6 °F - 50.4 °F 44% 29.82 in 10.0 mi South 8.1 mph - N/A   Mostly Cloudy
3:58 PM 74.3 °F - 51.1 °F 44% 29.79 in 10.0 mi South 8.1 mph - N/A   Scattered Clouds
4:58 PM 70.5 °F - 53.6 °F 55% 29.79 in 10.0 mi South 6.9 mph - N/A   Scattered Clouds
5:58 PM 67.1 °F - 52.3 °F 59% 29.79 in 10.0 mi SSW 5.8 mph - N/A   Mostly Cloudy
6:01 PM 66.2 °F - 53.6 °F 64% 29.77 in 10.0 mi South 6.9 mph - N/A Rain Light Rain
6:18 PM 64.4 °F - 51.8 °F 64% 29.76 in 10.0 mi SSE 9.2 mph - N/A Rain , Thunderstorm Light Rain
6:58 PM 62.4 °F - 53.2 °F 72% 29.76 in 10.0 mi SE 6.9 mph - 0.05 in Rain Light Rain
7:50 PM 60.8 °F - 57.2 °F 88% 29.72 in 10.0 mi SSE 16.1 mph - N/A   Mostly Cloudy
7:58 PM 62.6 °F - 57.2 °F 82% 29.72 in 10.0 mi SSE 16.1 mph 25.3 mph 0.02 in   Mostly Cloudy
8:58 PM 62.1 °F - 56.8 °F 83% 29.70 in 10.0 mi SSE 10.4 mph 19.6 mph N/A Rain Light Rain
9:58 PM 61.2 °F - 58.3 °F 90% 29.71 in 10.0 mi SSE 10.4 mph - 0.00 in   Overcast
10:18 PM 60.8 °F - 60.8 °F 100% 29.70 in 10.0 mi SSE 12.7 mph 20.7 mph N/A Rain , Thunderstorm Light Rain
10:40 PM 59.0 °F - 59.0 °F 100% 29.72 in 10.0 mi South 17.3 mph 25.3 mph N/A   Overcast
10:58 PM 59.5 °F - 59.5 °F 100% 29.71 in 10.0 mi South 16.1 mph 23.0 mph 0.01 in Rain Light Rain
11:21 PM 59.0 °F - 59.0 °F 100% 29.71 in 10.0 mi South 15.0 mph - N/A   Overcast
11:58 PM 59.4 °F - 59.4 °F 100% 29.71 in 10.0 mi South 15.0 mph - 0.01 in   Overcast